^^
Datos históricos de la estación: Murcia-Puente Tocinos
Diario Informe para Enero 14, 2019 Unidades:  Métrico    Inglés   Ambas
Diario Semanal Mensual Anual Configurable
  Máximo: Mínimo: Media:
Temperatura: 22.3 °C 6.2 °C 13.1 °C
Punto de rocio: 8.2 °C -0.4 °C 2.8 °C
Humedad: 81% 27% 53%
Velocidad viento: 20.9km/h 0.0km/h 8.8km/h
Racha viento: 33.8km/h - -
Viento- - South
Presión: 1021.9 hPa 1015.4 hPa -
Precipitación: 0.0 mm    
Historical Graphs
 
 
Tabla de datos para Enero 14, 2019
Hora Temperatura Punto de rocio Presión Viento Velocidad viento Racha viento Humedad Intensidad lluvia(por hora) Nubes
00:05 7.9 °C 2.9 °C 1021.9 hPa SW 7.6 km/h 13.0 km/h 71% 0.0 mm CLR
00:09 7.8 °C 2.9 °C 1021.9 hPa SSW 8.7 km/h 14.8 km/h 71% 0.0 mm CLR
00:14 7.8 °C 2.9 °C 1021.9 hPa SSW 8.7 km/h 13.0 km/h 71% 0.0 mm CLR
00:19 7.8 °C 2.9 °C 1021.7 hPa SSE 9.5 km/h 11.1 km/h 71% 0.0 mm CLR
00:25 7.7 °C 2.8 °C 1021.7 hPa South 9.5 km/h 14.8 km/h 71% 0.0 mm CLR
00:29 7.5 °C 2.6 °C 1021.7 hPa South 10.0 km/h 13.0 km/h 71% 0.0 mm CLR
00:34 7.3 °C 2.6 °C 1021.5 hPa SSW 10.0 km/h 13.0 km/h 72% 0.0 mm CLR
00:39 7.3 °C 2.6 °C 1021.5 hPa SSW 10.0 km/h 11.1 km/h 72% 0.0 mm CLR
00:45 7.4 °C 2.5 °C 1021.5 hPa SSW 10.0 km/h 7.4 km/h 71% 0.0 mm CLR
00:49 7.4 °C 2.5 °C 1021.5 hPa SSW 6.9 km/h 7.4 km/h 71% 0.0 mm CLR
00:54 7.4 °C 2.3 °C 1021.5 hPa SSW 6.9 km/h 7.4 km/h 70% 0.0 mm CLR
00:59 7.4 °C 2.1 °C 1021.5 hPa SSW 5.0 km/h 9.3 km/h 69% 0.0 mm CLR
01:04 7.4 °C 2.1 °C 1021.2 hPa SSW 5.0 km/h 7.4 km/h 69% 0.0 mm CLR
01:09 7.4 °C 2.1 °C 1021.2 hPa SW 6.4 km/h 7.4 km/h 69% 0.0 mm CLR
01:14 7.3 °C 2.0 °C 1021.2 hPa South 6.4 km/h 11.1 km/h 69% 0.0 mm CLR
01:19 7.2 °C 1.9 °C 1021.1 hPa SSW 7.6 km/h 11.1 km/h 69% 0.0 mm CLR
01:24 7.3 °C 1.8 °C 1021.1 hPa SSW 7.6 km/h 13.0 km/h 68% 0.0 mm CLR
01:29 7.3 °C 1.8 °C 1021.1 hPa SSW 9.5 km/h 13.0 km/h 68% 0.0 mm CLR
01:34 7.3 °C 1.8 °C 1020.9 hPa SSW 9.5 km/h 11.1 km/h 68% 0.0 mm CLR
01:39 7.2 °C 1.7 °C 1020.9 hPa SSW 8.4 km/h 11.1 km/h 68% 0.0 mm CLR
01:44 7.2 °C 1.7 °C 1020.9 hPa SW 8.4 km/h 7.4 km/h 68% 0.0 mm CLR
01:49 7.2 °C 1.7 °C 1020.8 hPa SW 6.4 km/h 5.6 km/h 68% 0.0 mm CLR
01:55 7.2 °C 1.7 °C 1020.8 hPa WSW 6.4 km/h 7.4 km/h 68% 0.0 mm CLR
01:59 7.2 °C 1.5 °C 1020.8 hPa WSW 3.9 km/h 7.4 km/h 67% 0.0 mm CLR
02:04 7.2 °C 1.5 °C 1020.7 hPa WSW 3.9 km/h 9.3 km/h 67% 0.0 mm CLR
02:09 7.2 °C 1.5 °C 1020.7 hPa SW 5.0 km/h 7.4 km/h 67% 0.0 mm CLR
02:14 7.2 °C 1.5 °C 1020.7 hPa WSW 5.0 km/h 3.7 km/h 67% 0.0 mm CLR
02:19 7.3 °C 1.4 °C 1020.8 hPa SE 3.9 km/h 7.6 km/h 66% 0.0 mm CLR
02:24 7.2 °C 1.3 °C 1020.8 hPa SSE 3.9 km/h 9.3 km/h 66% 0.0 mm CLR
02:29 6.9 °C 1.0 °C 1020.8 hPa SSE 6.9 km/h 11.1 km/h 66% 0.0 mm CLR
02:34 6.7 °C 1.0 °C 1020.8 hPa South 6.9 km/h 9.3 km/h 67% 0.0 mm CLR
02:39 6.6 °C 1.1 °C 1020.8 hPa South 7.6 km/h 11.1 km/h 68% 0.0 mm CLR
02:44 6.4 °C 1.1 °C 1020.8 hPa SSW 7.6 km/h 14.8 km/h 69% 0.0 mm CLR
02:49 6.3 °C 1.0 °C 1020.9 hPa SSE 8.7 km/h 14.8 km/h 69% 0.0 mm CLR
02:55 6.2 °C 0.9 °C 1020.9 hPa SSE 8.7 km/h 14.8 km/h 69% 0.0 mm CLR
02:59 6.2 °C 0.7 °C 1020.9 hPa SSE 11.1 km/h 14.8 km/h 68% 0.0 mm CLR
03:04 6.2 °C 0.5 °C 1020.9 hPa SE 11.1 km/h 16.7 km/h 67% 0.0 mm CLR
03:09 6.3 °C 0.4 °C 1020.9 hPa SSW 11.9 km/h 13.0 km/h 66% 0.0 mm CLR
03:14 6.4 °C 0.3 °C 1020.9 hPa SSW 11.9 km/h 13.0 km/h 65% 0.0 mm CLR
03:19 6.6 °C 0.5 °C 1020.9 hPa SSW 10.0 km/h 16.7 km/h 65% 0.0 mm CLR
03:25 6.9 °C 0.3 °C 1020.9 hPa SSW 9.7 km/h 16.1 km/h 63% 0.0 mm CLR
03:29 7.3 °C 0.3 °C 1020.9 hPa SSW 12.2 km/h 14.8 km/h 61% 0.0 mm CLR
03:35 7.6 °C 0.3 °C 1021.0 hPa SSW 12.2 km/h 16.7 km/h 60% 0.0 mm CLR
03:39 7.7 °C 0.2 °C 1021.0 hPa South 11.1 km/h 16.7 km/h 59% 0.0 mm CLR
03:44 7.8 °C 0.1 °C 1021.0 hPa SSW 11.1 km/h 13.0 km/h 58% 0.0 mm CLR
03:49 7.8 °C 0.1 °C 1021.0 hPa SSW 10.3 km/h 14.8 km/h 58% 0.0 mm CLR
03:55 7.9 °C -0.1 °C 1021.0 hPa SSW 10.3 km/h 18.5 km/h 57% 0.0 mm CLR
03:59 7.9 °C 0.1 °C 1021.0 hPa South 12.2 km/h 14.8 km/h 58% 0.0 mm CLR
04:05 7.9 °C 0.4 °C 1020.9 hPa SSW 12.2 km/h 14.8 km/h 59% 0.0 mm CLR
04:09 7.8 °C 0.1 °C 1020.9 hPa South 10.0 km/h 14.8 km/h 58% 0.0 mm CLR
04:14 7.7 °C 0.2 °C 1020.9 hPa South 10.0 km/h 13.0 km/h 59% 0.0 mm CLR
04:19 7.5 °C 0.0 °C 1020.6 hPa SSW 10.0 km/h 13.0 km/h 59% 0.0 mm CLR
04:24 7.4 °C -0.1 °C 1020.6 hPa SSW 10.0 km/h 13.0 km/h 59% 0.0 mm CLR
04:29 7.4 °C -0.1 °C 1020.6 hPa SSW 10.0 km/h 13.0 km/h 59% 0.0 mm CLR
04:35 7.6 °C 0.1 °C 1020.3 hPa SW 10.0 km/h 13.0 km/h 59% 0.0 mm CLR
04:39 7.8 °C -0.2 °C 1020.3 hPa SSW 9.5 km/h 16.7 km/h 57% 0.0 mm CLR
04:45 8.2 °C -0.3 °C 1020.3 hPa SSW 9.5 km/h 13.0 km/h 55% 0.0 mm CLR
04:49 8.6 °C -0.2 °C 1020.1 hPa SSW 10.3 km/h 18.5 km/h 54% 0.0 mm CLR
04:55 8.9 °C -0.4 °C 1020.1 hPa SSW 10.3 km/h 18.5 km/h 52% 0.0 mm CLR
04:59 9.1 °C -0.3 °C 1020.1 hPa SSE 11.1 km/h 16.7 km/h 52% 0.0 mm CLR
05:04 8.9 °C -0.4 °C 1020.0 hPa SSW 11.1 km/h 14.8 km/h 52% 0.0 mm CLR
05:09 8.7 °C -0.3 °C 1020.0 hPa South 11.1 km/h 14.8 km/h 53% 0.0 mm CLR
05:15 8.5 °C -0.3 °C 1020.0 hPa SSW 11.1 km/h 13.0 km/h 54% 0.0 mm CLR
05:19 8.4 °C -0.4 °C 1019.7 hPa SSE 9.5 km/h 14.8 km/h 54% 0.0 mm CLR
05:25 8.4 °C -0.4 °C 1019.7 hPa South 9.5 km/h 11.1 km/h 54% 0.0 mm CLR
05:29 8.4 °C -0.4 °C 1019.7 hPa SSW 8.7 km/h 9.3 km/h 54% 0.0 mm CLR
05:35 8.4 °C -0.4 °C 1019.6 hPa SSW 8.7 km/h 9.3 km/h 54% 0.0 mm CLR
05:39 8.5 °C -0.3 °C 1019.6 hPa South 6.9 km/h 9.3 km/h 54% 0.0 mm CLR
05:44 8.5 °C -0.3 °C 1019.6 hPa South 6.9 km/h 11.1 km/h 54% 0.0 mm CLR
05:49 8.4 °C -0.4 °C 1019.5 hPa South 7.6 km/h 9.3 km/h 54% 0.0 mm CLR
05:55 8.4 °C -0.4 °C 1019.5 hPa South 8.0 km/h 11.3 km/h 54% 0.0 mm CLR
05:59 8.6 °C -0.2 °C 1019.5 hPa SSW 8.4 km/h 9.3 km/h 54% 0.0 mm CLR
06:04 8.7 °C -0.3 °C 1019.3 hPa South 8.4 km/h 8.4 km/h 53% 0.0 mm CLR
06:09 8.7 °C -0.3 °C 1019.3 hPa SSE 6.9 km/h 9.3 km/h 53% 0.0 mm CLR
06:14 8.7 °C -0.1 °C 1019.3 hPa South 6.9 km/h 9.5 km/h 54% 0.0 mm CLR
06:19 8.8 °C -0.3 °C 1019.3 hPa SSW 8.4 km/h 13.0 km/h 53% 0.0 mm CLR
06:24 8.9 °C -0.2 °C 1019.3 hPa SSW 8.4 km/h 13.0 km/h 53% 0.0 mm CLR
06:29 8.9 °C -0.2 °C 1019.3 hPa SW 9.5 km/h 13.7 km/h 53% 0.0 mm CLR
06:35 9.3 °C -0.1 °C 1019.3 hPa SSW 9.5 km/h 11.1 km/h 52% 0.0 mm CLR
06:39 9.5 °C -0.2 °C 1019.3 hPa SSW 9.5 km/h 9.3 km/h 51% 0.0 mm CLR
06:45 9.7 °C 0.1 °C 1019.3 hPa SW 9.5 km/h 11.1 km/h 51% 0.0 mm CLR
06:49 9.8 °C 0.1 °C 1019.3 hPa SSW 7.6 km/h 11.1 km/h 51% 0.0 mm CLR
06:54 9.9 °C -0.1 °C 1019.3 hPa SSW 7.6 km/h 11.1 km/h 50% 0.0 mm CLR
06:59 9.9 °C -0.1 °C 1019.3 hPa SSW 6.4 km/h 11.1 km/h 50% 0.0 mm CLR
07:05 9.9 °C -0.1 °C 1019.3 hPa SSW 6.4 km/h 9.3 km/h 50% 0.0 mm CLR
07:09 9.8 °C -0.2 °C 1019.3 hPa South 7.6 km/h 8.7 km/h 50% 0.0 mm CLR
07:15 9.4 °C 0.0 °C 1019.3 hPa South 7.6 km/h 11.1 km/h 52% 0.0 mm CLR
07:19 8.9 °C -0.2 °C 1019.2 hPa SSW 6.9 km/h 9.3 km/h 53% 0.0 mm CLR
07:24 8.7 °C -0.1 °C 1019.2 hPa South 6.9 km/h 9.5 km/h 54% 0.0 mm CLR
07:29 8.4 °C -0.1 °C 1019.2 hPa SSW 7.6 km/h 11.1 km/h 55% 0.0 mm CLR
07:35 8.2 °C -0.1 °C 1019.4 hPa SSW 7.6 km/h 7.6 km/h 56% 0.0 mm CLR
07:39 8.2 °C -0.1 °C 1019.4 hPa SSW 6.9 km/h 11.1 km/h 56% 0.0 mm CLR
07:44 8.2 °C -0.1 °C 1019.4 hPa SSW 6.9 km/h 10.0 km/h 56% 0.0 mm CLR
07:49 8.2 °C -0.1 °C 1019.4 hPa SW 8.4 km/h 12.2 km/h 56% 0.0 mm CLR
07:55 8.2 °C -0.1 °C 1019.4 hPa SW 8.4 km/h 9.3 km/h 56% 0.0 mm CLR
07:59 8.2 °C -0.1 °C 1019.4 hPa South 8.4 km/h 11.1 km/h 56% 0.0 mm CLR
08:04 8.1 °C -0.2 °C 1019.4 hPa SSW 8.4 km/h 11.1 km/h 56% 0.0 mm CLR
08:09 8.1 °C -0.2 °C 1019.4 hPa SSW 8.4 km/h 11.1 km/h 56% 0.0 mm CLR
08:14 8.2 °C -0.1 °C 1019.4 hPa SSW 8.4 km/h 13.0 km/h 56% 0.0 mm CLR
08:19 8.3 °C 0.0 °C 1019.7 hPa SW 8.7 km/h 10.3 km/h 56% 0.0 mm CLR
08:25 8.4 °C 0.1 °C 1019.7 hPa West 8.7 km/h 18.5 km/h 56% 0.0 mm CLR
08:29 8.7 °C -0.1 °C 1019.7 hPa SW 10.0 km/h 8.4 km/h 54% 0.0 mm CLR
08:34 8.4 °C -0.1 °C 1019.4 hPa SW 10.0 km/h 14.8 km/h 55% 0.0 mm CLR
08:39 8.3 °C 0.0 °C 1019.4 hPa South 8.7 km/h 11.1 km/h 56% 0.0 mm CLR
08:44 8.4 °C 0.1 °C 1019.4 hPa SSW 8.7 km/h 10.0 km/h 56% 0.0 mm CLR
08:49 8.7 °C 0.2 °C 1019.4 hPa SSW 8.4 km/h 11.1 km/h 55% 0.0 mm CLR
08:55 8.9 °C 0.1 °C 1019.4 hPa SW 8.4 km/h 13.0 km/h 54% 0.0 mm CLR
08:59 9.1 °C 0.3 °C 1019.4 hPa SW 8.7 km/h 7.6 km/h 54% 0.0 mm CLR
09:05 9.2 °C 0.1 °C 1019.4 hPa SSW 8.7 km/h 11.1 km/h 53% 0.0 mm CLR
09:09 9.3 °C 0.2 °C 1019.4 hPa SSW 6.4 km/h 9.3 km/h 53% 0.0 mm CLR
09:15 9.4 °C 0.3 °C 1019.4 hPa SSW 6.4 km/h 9.3 km/h 53% 0.0 mm CLR
09:19 9.4 °C 0.3 °C 1019.4 hPa South 7.6 km/h 11.1 km/h 53% 0.0 mm CLR
09:25 9.4 °C 0.3 °C 1019.4 hPa South 7.6 km/h 9.3 km/h 53% 0.0 mm CLR
09:29 9.6 °C 0.5 °C 1019.4 hPa South 7.6 km/h 9.3 km/h 53% 0.0 mm CLR
09:34 9.7 °C 0.6 °C 1019.6 hPa SSW 7.6 km/h 9.3 km/h 53% 0.0 mm CLR
09:39 10.0 °C 0.8 °C 1019.6 hPa South 5.8 km/h 8.4 km/h 53% 0.0 mm CLR
09:44 10.3 °C 0.9 °C 1019.6 hPa South 5.8 km/h 10.0 km/h 52% 0.0 mm CLR
09:49 10.6 °C 0.9 °C 1019.5 hPa South 6.9 km/h 11.1 km/h 51% 0.0 mm CLR
09:54 10.8 °C 1.1 °C 1019.5 hPa South 6.9 km/h 11.1 km/h 51% 0.0 mm CLR
09:59 11.0 °C 0.9 °C 1019.5 hPa South 8.4 km/h 11.1 km/h 50% 0.0 mm CLR
10:04 11.2 °C 1.2 °C 1019.4 hPa South 8.4 km/h 9.3 km/h 50% 0.0 mm CLR
10:09 11.4 °C 1.1 °C 1019.4 hPa South 8.4 km/h 13.0 km/h 49% 0.0 mm CLR
10:14 11.9 °C 1.2 °C 1019.4 hPa SSW 8.4 km/h 11.1 km/h 48% 0.0 mm CLR
10:19 12.3 °C 1.3 °C 1019.3 hPa SSW 9.5 km/h 13.0 km/h 47% 0.0 mm CLR
10:24 12.6 °C 1.3 °C 1019.3 hPa SSW 9.5 km/h 11.1 km/h 46% 0.0 mm CLR
10:29 12.8 °C 1.4 °C 1019.3 hPa SSW 8.7 km/h 11.1 km/h 46% 0.0 mm CLR
10:35 13.0 °C 1.6 °C 1019.4 hPa SSW 8.7 km/h 10.0 km/h 46% 0.0 mm CLR
10:39 13.2 °C 1.5 °C 1019.4 hPa South 7.6 km/h 11.1 km/h 45% 0.0 mm CLR
10:45 13.4 °C 1.7 °C 1019.4 hPa SW 7.6 km/h 13.0 km/h 45% 0.0 mm CLR
10:49 13.8 °C 1.7 °C 1019.2 hPa SSW 9.5 km/h 14.8 km/h 44% 0.0 mm CLR
10:54 14.1 °C 1.7 °C 1019.2 hPa SSW 9.5 km/h 14.8 km/h 43% 0.0 mm CLR
10:59 14.3 °C 1.9 °C 1019.2 hPa SSW 9.5 km/h 13.0 km/h 43% 0.0 mm CLR
11:05 14.5 °C 2.1 °C 1019.1 hPa SW 9.5 km/h 13.0 km/h 43% 0.0 mm CLR
11:09 14.7 °C 1.9 °C 1019.1 hPa SW 7.6 km/h 11.1 km/h 42% 0.0 mm CLR
11:14 14.9 °C 2.1 °C 1019.1 hPa WSW 7.6 km/h 14.8 km/h 42% 0.0 mm CLR
11:19 15.2 °C 2.0 °C 1019.2 hPa West 8.4 km/h 11.1 km/h 41% 0.0 mm CLR
11:24 15.4 °C 2.2 °C 1019.2 hPa SW 8.4 km/h 9.3 km/h 41% 0.0 mm CLR
11:29 15.6 °C 2.4 °C 1019.2 hPa SW 6.9 km/h 9.5 km/h 41% 0.0 mm CLR
11:34 15.9 °C 2.3 °C 1018.9 hPa SW 6.9 km/h 14.8 km/h 40% 0.0 mm CLR
11:40 16.1 °C 2.5 °C 1018.9 hPa SSW 8.7 km/h 9.3 km/h 40% 0.0 mm CLR
11:44 16.3 °C 2.3 °C 1018.9 hPa WSW 8.7 km/h 18.5 km/h 39% 0.0 mm CLR
11:49 16.6 °C 2.2 °C 1018.7 hPa South 10.0 km/h 11.9 km/h 38% 0.0 mm CLR
11:55 16.8 °C 2.4 °C 1018.7 hPa SW 10.0 km/h 14.8 km/h 38% 0.0 mm CLR
11:59 17.1 °C 2.3 °C 1018.7 hPa WNW 10.0 km/h 10.0 km/h 37% 0.0 mm CLR
12:04 17.3 °C 2.4 °C 1018.5 hPa WSW 10.0 km/h 11.1 km/h 37% 0.0 mm CLR
12:09 17.5 °C 2.2 °C 1018.5 hPa West 8.7 km/h 18.5 km/h 36% 0.0 mm CLR
12:14 17.7 °C 2.4 °C 1018.5 hPa West 8.7 km/h 27.0 km/h 36% 0.0 mm CLR
12:19 17.8 °C 2.5 °C 1018.1 hPa WNW 13.0 km/h 18.5 km/h 36% 0.0 mm CLR
12:25 18.0 °C 2.3 °C 1018.1 hPa WSW 13.0 km/h 25.9 km/h 35% 0.0 mm CLR
12:29 18.2 °C 2.5 °C 1018.1 hPa WSW 13.7 km/h 22.2 km/h 35% 0.0 mm CLR
12:34 18.3 °C 2.6 °C 1017.8 hPa WSW 13.7 km/h 25.9 km/h 35% 0.0 mm CLR
12:39 18.3 °C 2.6 °C 1017.8 hPa West 14.0 km/h 22.2 km/h 35% 0.0 mm CLR
12:44 18.3 °C 2.6 °C 1017.8 hPa West 14.0 km/h 22.2 km/h 35% 0.0 mm CLR
12:49 18.4 °C 2.2 °C 1017.5 hPa NW 16.1 km/h 33.3 km/h 34% 0.0 mm CLR
12:55 18.4 °C 2.2 °C 1017.5 hPa West 16.1 km/h 33.8 km/h 34% 0.0 mm CLR
12:59 18.6 °C 2.4 °C 1017.5 hPa West 20.9 km/h 24.1 km/h 34% 0.0 mm CLR
13:04 18.6 °C 2.4 °C 1017.2 hPa WSW 20.9 km/h 33.3 km/h 34% 0.0 mm CLR
13:09 18.7 °C 2.5 °C 1017.2 hPa WNW 20.1 km/h 27.8 km/h 34% 0.0 mm CLR
13:15 18.8 °C 2.6 °C 1017.2 hPa NW 20.1 km/h 25.9 km/h 34% 0.0 mm CLR
13:19 19.0 °C 2.8 °C 1016.9 hPa West 19.0 km/h 33.3 km/h 34% 0.0 mm CLR
13:24 19.1 °C 2.4 °C 1016.9 hPa West 19.0 km/h 27.8 km/h 33% 0.0 mm CLR
13:29 19.3 °C 3.1 °C 1016.9 hPa West 18.3 km/h 25.9 km/h 34% 0.0 mm CLR
13:35 19.5 °C 2.8 °C 1016.7 hPa WSW 18.3 km/h 25.9 km/h 33% 0.0 mm CLR
13:39 19.6 °C 2.9 °C 1016.7 hPa West 13.7 km/h 24.1 km/h 33% 0.0 mm CLR
13:45 19.7 °C 2.9 °C 1016.7 hPa WSW 13.7 km/h 24.1 km/h 33% 0.0 mm CLR
13:49 19.9 °C 2.7 °C 1016.4 hPa West 13.7 km/h 24.1 km/h 32% 0.0 mm CLR
13:55 20.0 °C 3.2 °C 1016.4 hPa West 12.9 km/h 24.1 km/h 33% 0.0 mm CLR
14:00 20.1 °C 2.9 °C 1016.4 hPa West 12.9 km/h 22.5 km/h 32% 0.0 mm CLR
14:05 20.3 °C 3.1 °C 1016.2 hPa West 13.7 km/h 18.5 km/h 32% 0.0 mm CLR
14:09 20.5 °C 3.2 °C 1016.2 hPa SW 12.2 km/h 16.7 km/h 32% 0.0 mm CLR
14:15 20.7 °C 2.9 °C 1016.2 hPa NW 12.2 km/h 24.1 km/h 31% 0.0 mm CLR
14:19 20.7 °C 2.9 °C 1016.1 hPa WSW 13.7 km/h 29.6 km/h 31% 0.0 mm CLR
14:25 20.8 °C 3.1 °C 1016.1 hPa West 13.7 km/h 25.9 km/h 31% 0.0 mm CLR
14:29 20.8 °C 3.1 °C 1016.1 hPa WNW 19.0 km/h 18.5 km/h 31% 0.0 mm CLR
14:35 21.1 °C 3.3 °C 1016.0 hPa WNW 19.0 km/h 22.2 km/h 31% 0.0 mm CLR
14:39 21.2 °C 2.9 °C 1016.0 hPa NW 14.0 km/h 27.8 km/h 30% 0.0 mm CLR
14:45 21.3 °C 2.6 °C 1016.0 hPa WNW 14.5 km/h 30.6 km/h 29% 0.0 mm CLR
14:49 21.3 °C 2.6 °C 1015.9 hPa WNW 17.2 km/h 24.1 km/h 29% 0.0 mm CLR
14:55 21.3 °C 2.1 °C 1015.9 hPa WNW 16.1 km/h 25.7 km/h 28% 0.0 mm CLR
15:00 21.4 °C 2.1 °C 1015.9 hPa WNW 19.3 km/h 27.4 km/h 28% 0.0 mm CLR
15:05 21.5 °C 2.2 °C 1015.8 hPa NW 18.0 km/h 26.2 km/h 28% 0.0 mm CLR
15:09 21.5 °C 2.2 °C 1015.8 hPa West 15.6 km/h 22.2 km/h 28% 0.0 mm CLR
15:15 21.6 °C 2.3 °C 1015.8 hPa WNW 14.5 km/h 20.9 km/h 28% 0.0 mm CLR
15:19 21.7 °C 2.4 °C 1015.8 hPa WNW 13.0 km/h 20.4 km/h 28% 0.0 mm CLR
15:24 21.6 °C 2.3 °C 1015.8 hPa NW 13.0 km/h 18.5 km/h 28% 0.0 mm CLR
15:29 21.7 °C 2.4 °C 1015.8 hPa WNW 13.0 km/h 18.5 km/h 28% 0.0 mm CLR
15:34 21.7 °C 2.4 °C 1015.6 hPa West 13.0 km/h 18.5 km/h 28% 0.0 mm CLR
15:39 21.7 °C 2.4 °C 1015.6 hPa West 12.2 km/h 20.4 km/h 28% 0.0 mm CLR
15:45 21.8 °C 2.4 °C 1015.6 hPa NNW 12.2 km/h 13.0 km/h 28% 0.0 mm CLR
15:49 21.8 °C 2.4 °C 1015.6 hPa NW 10.0 km/h 11.1 km/h 28% 0.0 mm CLR
15:55 21.8 °C 2.4 °C 1015.6 hPa NW 9.7 km/h 11.3 km/h 28% 0.0 mm CLR
15:59 21.9 °C 2.6 °C 1015.6 hPa WSW 7.6 km/h 13.0 km/h 28% 0.0 mm CLR
16:05 22.0 °C 2.7 °C 1015.5 hPa WNW 8.0 km/h 16.1 km/h 28% 0.0 mm CLR
16:09 22.1 °C 2.7 °C 1015.5 hPa WNW 8.4 km/h 16.7 km/h 28% 0.0 mm CLR
16:15 22.2 °C 2.8 °C 1015.5 hPa WNW 8.4 km/h 7.4 km/h 28% 0.0 mm CLR
16:19 22.3 °C 2.4 °C 1015.5 hPa WNW 6.4 km/h 11.1 km/h 27% 0.0 mm CLR
16:25 22.3 °C 2.4 °C 1015.5 hPa West 6.4 km/h 13.0 km/h 27% 0.0 mm CLR
16:29 22.2 °C 2.3 °C 1015.5 hPa WNW 7.6 km/h 9.3 km/h 27% 0.0 mm CLR
16:35 22.3 °C 2.9 °C 1015.4 hPa WNW 8.0 km/h 12.9 km/h 28% 0.0 mm CLR
16:39 22.2 °C 2.8 °C 1015.4 hPa NNE 5.8 km/h 7.6 km/h 28% 0.0 mm CLR
16:45 22.2 °C 2.3 °C 1015.4 hPa NNW 4.8 km/h 9.7 km/h 27% 0.0 mm CLR
16:49 22.1 °C 2.7 °C 1015.4 hPa NE 5.0 km/h 7.4 km/h 28% 0.0 mm CLR
16:55 22.2 °C 2.3 °C 1015.4 hPa NNE 5.0 km/h 7.6 km/h 27% 0.0 mm CLR
17:00 22.1 °C 2.2 °C 1015.4 hPa NNE 4.8 km/h 9.7 km/h 27% 0.0 mm CLR
17:05 22.1 °C 2.7 °C 1015.5 hPa NNE 5.0 km/h 4.7 km/h 28% 0.0 mm CLR
17:09 22.1 °C 2.7 °C 1015.5 hPa NNE 4.7 km/h 5.8 km/h 28% 0.0 mm CLR
17:15 22.1 °C 2.7 °C 1015.5 hPa NNE 4.7 km/h 5.6 km/h 28% 0.0 mm CLR
17:19 22.1 °C 2.7 °C 1015.5 hPa NNE 3.9 km/h 5.6 km/h 28% 0.0 mm CLR
17:25 22.0 °C 2.6 °C 1015.5 hPa NNE 3.2 km/h 4.8 km/h 28% 0.0 mm CLR
17:29 21.9 °C 2.6 °C 1015.5 hPa NNE 3.2 km/h 3.7 km/h 28% 0.0 mm CLR
17:35 21.9 °C 2.6 °C 1015.6 hPa NNE 3.2 km/h 3.7 km/h 28% 0.0 mm CLR
17:39 21.8 °C 2.4 °C 1015.6 hPa NNE 2.3 km/h 3.7 km/h 28% 0.0 mm CLR
17:45 21.9 °C 2.6 °C 1015.6 hPa NNE 1.6 km/h 3.2 km/h 28% 0.0 mm CLR
17:49 21.9 °C 2.6 °C 1015.5 hPa Calm     28% 0.0 mm CLR
17:55 21.9 °C 2.6 °C 1015.5 hPa Calm     28% 0.0 mm CLR
18:00 21.8 °C 2.4 °C 1015.5 hPa Calm   14.5 km/h 28% 0.0 mm CLR
18:05 20.3 °C 5.1 °C 1015.8 hPa Calm   16.7 km/h 37% 0.0 mm CLR
18:09 19.1 °C 5.6 °C 1015.8 hPa NE 8.7 km/h 11.1 km/h 41% 0.0 mm CLR
18:15 18.4 °C 5.9 °C 1015.8 hPa North 8.7 km/h 13.0 km/h 44% 0.0 mm CLR
18:19 17.8 °C 6.0 °C 1016.0 hPa NW 8.7 km/h 14.8 km/h 46% 0.0 mm CLR
18:25 17.4 °C 6.3 °C 1016.0 hPa North 8.7 km/h 13.0 km/h 48% 0.0 mm CLR
18:29 17.0 °C 6.2 °C 1016.0 hPa North 8.7 km/h 14.8 km/h 49% 0.0 mm CLR
18:35 16.7 °C 6.2 °C 1016.2 hPa NNE 9.7 km/h 19.3 km/h 50% 0.0 mm CLR
18:39 16.3 °C 6.1 °C 1016.2 hPa NNW 11.1 km/h 15.6 km/h 51% 0.0 mm CLR
18:44 16.1 °C 6.2 °C 1016.2 hPa NNE 11.1 km/h 14.8 km/h 52% 0.0 mm CLR
18:49 15.8 °C 6.2 °C 1016.4 hPa NNE 10.0 km/h 16.7 km/h 53% 0.0 mm CLR
18:55 15.6 °C 6.1 °C 1016.4 hPa North 10.0 km/h 18.5 km/h 53% 0.0 mm CLR
19:00 15.4 °C 6.2 °C 1016.4 hPa NNE 12.9 km/h 20.9 km/h 54% 0.0 mm CLR
19:04 15.3 °C 6.3 °C 1016.6 hPa NNE 12.2 km/h 18.5 km/h 55% 0.0 mm CLR
19:09 15.1 °C 6.4 °C 1016.6 hPa NE 12.2 km/h 22.2 km/h 56% 0.0 mm CLR
19:15 14.8 °C 6.3 °C 1016.6 hPa NNE 12.2 km/h 20.4 km/h 57% 0.0 mm CLR
19:19 14.6 °C 6.7 °C 1016.8 hPa NE 13.7 km/h 22.2 km/h 59% 0.0 mm CLR
19:25 14.4 °C 6.7 °C 1016.8 hPa NE 12.9 km/h 20.9 km/h 60% 0.0 mm CLR
19:29 14.3 °C 7.1 °C 1016.8 hPa NE 14.0 km/h 16.7 km/h 62% 0.0 mm CLR
19:35 14.1 °C 7.2 °C 1017.0 hPa NNE 14.0 km/h 14.8 km/h 63% 0.0 mm CLR
19:39 14.0 °C 7.3 °C 1017.0 hPa NE 10.3 km/h 11.1 km/h 64% 0.0 mm CLR
19:44 13.9 °C 7.4 °C 1017.0 hPa NNE 10.3 km/h 13.0 km/h 65% 0.0 mm CLR
19:49 13.7 °C 7.7 °C 1017.3 hPa NE 9.5 km/h 16.7 km/h 67% 0.0 mm CLR
19:54 13.6 °C 7.8 °C 1017.3 hPa ENE 9.5 km/h 14.8 km/h 68% 0.0 mm CLR
20:00 13.4 °C 7.8 °C 1017.3 hPa NE 11.3 km/h 14.5 km/h 69% 0.0 mm CLR
20:05 13.3 °C 7.9 °C 1017.4 hPa NE 11.3 km/h 17.7 km/h 70% 0.0 mm CLR
20:09 13.3 °C 7.9 °C 1017.4 hPa NE 10.3 km/h 13.0 km/h 70% 0.0 mm CLR
20:15 13.2 °C 7.8 °C 1017.4 hPa NE 11.3 km/h 14.5 km/h 70% 0.0 mm CLR
20:19 13.2 °C 7.8 °C 1017.7 hPa NE 8.7 km/h 11.1 km/h 70% 0.0 mm CLR
20:25 13.2 °C 7.8 °C 1017.7 hPa NNE 8.7 km/h 7.4 km/h 70% 0.0 mm CLR
20:29 13.2 °C 7.6 °C 1017.7 hPa NNE 6.4 km/h 7.4 km/h 69% 0.0 mm CLR
20:35 13.1 °C 7.6 °C 1017.9 hPa North 8.0 km/h 8.0 km/h 69% 0.0 mm CLR
20:39 13.0 °C 7.7 °C 1017.9 hPa NE 4.7 km/h 11.1 km/h 70% 0.0 mm CLR
20:45 12.9 °C 7.6 °C 1017.9 hPa NE 4.7 km/h 14.8 km/h 70% 0.0 mm CLR
20:49 12.9 °C 7.3 °C 1018.0 hPa NE 7.6 km/h 11.9 km/h 69% 0.0 mm CLR
20:55 12.9 °C 7.3 °C 1018.0 hPa NE 8.0 km/h 11.3 km/h 69% 0.0 mm CLR
21:00 12.9 °C 7.3 °C 1018.0 hPa NE 8.0 km/h 9.7 km/h 69% 0.0 mm CLR
21:05 13.1 °C 7.7 °C 1018.2 hPa NE 8.0 km/h 11.3 km/h 70% 0.0 mm CLR
21:09 13.1 °C 7.7 °C 1018.2 hPa NE 6.9 km/h 11.1 km/h 70% 0.0 mm CLR
21:15 13.1 °C 7.9 °C 1018.2 hPa NE 8.0 km/h 11.3 km/h 71% 0.0 mm CLR
21:19 13.1 °C 7.9 °C 1018.4 hPa NNE 7.6 km/h 7.4 km/h 71% 0.0 mm CLR
21:25 12.9 °C 8.0 °C 1018.4 hPa NNE 8.0 km/h 8.0 km/h 72% 0.0 mm CLR
21:29 12.9 °C 7.9 °C 1018.4 hPa NNE 4.7 km/h 3.9 km/h 72% 0.0 mm CLR
21:35 12.8 °C 8.1 °C 1018.5 hPa NNE 3.2 km/h 8.0 km/h 73% 0.0 mm CLR
21:39 12.8 °C 8.1 °C 1018.5 hPa North 3.2 km/h 5.6 km/h 73% 0.0 mm CLR
21:45 12.6 °C 8.1 °C 1018.5 hPa North 3.2 km/h 8.0 km/h 74% 0.0 mm CLR
21:49 12.3 °C 7.8 °C 1018.5 hPa NNW 3.9 km/h 7.4 km/h 74% 0.0 mm CLR
21:55 12.1 °C 7.8 °C 1018.5 hPa North 3.2 km/h 8.0 km/h 75% 0.0 mm CLR
21:59 11.8 °C 7.9 °C 1018.5 hPa NNE 5.0 km/h 7.4 km/h 77% 0.0 mm CLR
22:05 11.7 °C 8.0 °C 1018.6 hPa NNE 4.8 km/h 9.7 km/h 78% 0.0 mm CLR
22:10 11.6 °C 8.1 °C 1018.6 hPa NNE 5.8 km/h 5.6 km/h 79% 0.0 mm CLR
22:15 11.6 °C 8.1 °C 1018.6 hPa North 4.8 km/h 8.0 km/h 79% 0.0 mm CLR
22:19 11.4 °C 8.1 °C 1018.7 hPa WNW 4.7 km/h 7.4 km/h 80% 0.0 mm CLR
22:25 11.3 °C 8.0 °C 1018.7 hPa WNW 3.2 km/h 8.0 km/h 80% 0.0 mm CLR
22:29 11.3 °C 8.2 °C 1018.7 hPa WNW 5.0 km/h 9.3 km/h 81% 0.0 mm CLR
22:35 11.3 °C 8.2 °C 1018.8 hPa WNW 4.8 km/h 8.0 km/h 81% 0.0 mm CLR
22:39 11.2 °C 8.1 °C 1018.8 hPa WNW 5.8 km/h 5.0 km/h 81% 0.0 mm CLR
22:45 11.2 °C 8.1 °C 1018.8 hPa WNW 5.8 km/h 3.7 km/h 81% 0.0 mm CLR
22:49 11.1 °C 7.9 °C 1018.8 hPa WNW 3.2 km/h 1.9 km/h 81% 0.0 mm CLR
22:55 11.1 °C 7.9 °C 1018.8 hPa WNW 3.2 km/h 3.7 km/h 81% 0.0 mm CLR
22:59 11.0 °C 7.9 °C 1018.8 hPa WNW 2.3 km/h 7.4 km/h 81% 0.0 mm CLR
23:05 10.9 °C 7.6 °C 1018.8 hPa WNW 1.6 km/h 4.8 km/h 80% 0.0 mm CLR
23:10 10.7 °C 7.2 °C 1018.8 hPa SSE 3.2 km/h 7.4 km/h 79% 0.0 mm CLR
23:14 10.6 °C 6.9 °C 1018.8 hPa SSE 3.2 km/h 7.4 km/h 78% 0.0 mm CLR
23:19 10.3 °C 6.4 °C 1018.9 hPa SSE 5.8 km/h 7.4 km/h 77% 0.0 mm CLR
23:25 10.2 °C 6.3 °C 1018.9 hPa SSE 5.8 km/h 3.7 km/h 77% 0.0 mm CLR
23:29 10.2 °C 6.6 °C 1018.9 hPa SSE 3.9 km/h 5.6 km/h 78% 0.0 mm CLR
23:35 10.2 °C 6.6 °C 1019.0 hPa SSE 3.2 km/h 8.0 km/h 78% 0.0 mm CLR
23:39 10.2 °C 6.3 °C 1019.0 hPa SSE 3.9 km/h 5.6 km/h 77% 0.0 mm CLR
23:45 10.1 °C 6.2 °C 1019.0 hPa SSE 3.2 km/h 4.8 km/h 77% 0.0 mm CLR
23:49 10.0 °C 6.3 °C 1019.1 hPa SSE 3.2 km/h 7.4 km/h 78% 0.0 mm CLR
23:55 10.0 °C 6.5 °C 1019.1 hPa SSE 3.2 km/h 5.6 km/h 79% 0.0 mm CLR
Murcia-Puente Tocinos, España
Compliments of Weather Underground - 2.75 mb

La estación de MeteoMurcia.com, publica sus datos en los siguientes proyectos:

Weather Underground PWS IMURCIAP2 Meteoclimatic www.awekas.at

W3Counter
Web Analytics